Location: Cussy
(47.0410°N, 4.6412°E)
Time: 05:49:48
(UTC+00:00)

Cosmos 1606 - Pass Details

Date: 30 November 2020
Orbit: 502 x 527 km, 82.5° (Epoch: 18 January)

Event Time Altitude Azimuth Distance (km) Brightness Sun altitude
Rises 17:03:25 0° 198° (SSW) 2,654 6.9 -11.4°
Reaches altitude 10° 17:05:36 10° 203° (SSW) 1,769 6.0 -11.7°
Maximum altitude 17:09:24 54° 282° (WNW) 644 3.5 -12.4°
Drops below altitude 10° 17:13:15 10° 1° (N) 1,777 5.2 -13.0°
Sets 17:15:26 0° 6° (N) 2,668 6.1 -13.3°
